SITRO-AIS 32

Last updated on Mon May 12 2025 00:03:40 GMT+0000 (Coordinated Universal Time)

1 59057U 24039G 25131.55202475 .04561624 25137-5 11517-2 0 9994 2 59057 97.4041 108.3500 0008013 200.2163 159.8814 16.28919223 67446
UTC large
Height (km)
Speed (km/s)
/
Latitude / Longitude
Inclination (degrees)
Orbital Period (minutes)
Azimuth
Elevation
Range (km)
Doppler Factor

Next 0 passes for location: London (51.5072 / 0.1276)

Sorry there are no passes over London.